This is the latest recevied weather packets stored in our database for station/object KK4WXG. If no packets are shown the sender has not sent any weather packets the latest 10 day(s).
| Time | Temp. | Humidity | Pressure | Rain* | Wind** | Luminosity | Snow |
|---|---|---|---|---|---|---|---|
| 1778159344 | 12.78° C | 55% | 1013.1 hPa | 0 mm | - | 196 W/m² | - |
| 1778159040 | 12.22° C | 53% | 1013.1 hPa | 0 mm | - | 160 W/m² | - |
| 1778158739 | 12.22° C | 52% | 1013.1 hPa | 0 mm | - | 152 W/m² | - |
| 1778158436 | 12.22° C | 52% | 1013 hPa | 0 mm | - | 160 W/m² | - |
| 1778158134 | 12.78° C | 54% | 1013.4 hPa | 0 mm | - | 169 W/m² | - |
| 1778157830 | 12.78° C | 53% | 1013.3 hPa | 0 mm | - | 201 W/m² | - |
| 1778157529 | 12.78° C | 52% | 1013.1 hPa | 0 mm | - | 209 W/m² | - |
| 1778157225 | 12.78° C | 54% | 1013.1 hPa | 0 mm | - | 199 W/m² | - |
| 1778156922 | 12.22° C | 55% | 1013.1 hPa | 0 mm | - | 191 W/m² | - |
| 1778156617 | 12.22° C | 57% | 1013.1 hPa | 0 mm | - | 139 W/m² | - |
| 1778156314 | 12.22° C | 53% | 1013.1 hPa | 0 mm | - | 132 W/m² | - |
| 1778156009 | 12.22° C | 55% | 1012.9 hPa | 0 mm | - | 106 W/m² | - |
| 1778155706 | 11.67° C | 55% | 1013 hPa | 0 mm | - | 103 W/m² | - |
| 1778155402 | 11.67° C | 54% | 1012.7 hPa | 0 mm | - | 114 W/m² | - |
| 1778155098 | 11.67° C | 56% | 1012.8 hPa | 0 mm | - | 108 W/m² | - |
| 1778154794 | 11.67° C | 55% | 1012.8 hPa | 0 mm | - | 92 W/m² | - |
| 1778154490 | 11.67° C | 55% | 1012.9 hPa | 0 mm | - | 64 W/m² | - |
| 1778154188 | 11.67° C | 54% | 1012.6 hPa | 0 mm | - | 61 W/m² | - |
| 1778153885 | 11.67° C | 56% | 1012.6 hPa | 0 mm | - | 82 W/m² | - |
| 1778153582 | 11.67° C | 57% | 1012.5 hPa | 0 mm | - | 52 W/m² | - |
| 1778153280 | 11.67° C | 56% | 1012.5 hPa | 0 mm | - | 51 W/m² | - |
| 1778152976 | 11.67° C | 57% | 1012.8 hPa | 0 mm | - | 46 W/m² | - |
| 1778152674 | 11.67° C | 59% | 1012.7 hPa | 0 mm | - | 49 W/m² | - |
| 1778152370 | 11.67° C | 57% | 1012.8 hPa | 0 mm | - | 55 W/m² | - |
| 1778152067 | 11.67° C | 56% | 1012.6 hPa | 0 mm | - | 46 W/m² | - |
* Rain latest hour (hover to see other rain measurements)
** Current wind speed in m/s (hover to see current wind gust speed)